Regional Weather Roundup
Issued by NWS

Home | Current Version | Previous Version | Text Only | Print | Product List | Glossary Off
Versions: 1 2 3 4 5 6 7 8 9 10 11 12 13 14 15 16 17 18 19 20 21 22 23 24 25 26 27

000
ASUS45 KSLC 220810
RWRUT

UTAH REGIONAL WEATHER ROUNDUP
NATIONAL WEATHER SERVICE SALT LAKE CITY UT
100 AM MST THU FEB 22 2018

UTZ001>011-023>025-220900-

NORTHERN UTAH

CITY           SKY/WX    TMP DP  RH WIND       PRES   REMARKS
BRIGHAM CITY     N/A     17   9  70 CALM      30.06F
HILL AFB       MOCLDY    16   4  61 E15       30.03F WCI   1
LOGAN          HAZE       5  -1  76 CALM      30.07S VSB 1/4
OGDEN          MOCLDY    17   6  62 S10       30.04F WCI   5
SALT LAKE CITY   N/A     20  11  68 E7        30.05F WCI  11
TOOELE VALLEY    N/A     14   7  73 S14       30.04F WCI  -1
WENDOVER         N/A     16   7  67 NE7       30.04F WCI   6
HEBER CITY       N/A      3  -2  78 CALM      30.00F
WEST JORDAN      N/A     15   7  72 CALM      30.05S

$$

UTZ011>015-024>027-220900-

CENTRAL/NORTHEAST UTAH

CITY           SKY/WX    TMP DP  RH WIND       PRES   REMARKS
PROVO AIRPORT    N/A     15  10  80 S5        30.07F WCI   8
MOAB/CANYONLAN   N/A     27  24  89 E6        30.01F WCI  20
DELTA          MOCLDY     9   7  92 E3        30.05S
PRICE          MOCLDY    18   5  57 N8        29.97F WCI   8
RICHFIELD      PTCLDY    21  18  86 CALM      30.02F
VERNAL         CLOUDY    18  10  71 NW3       30.04F

$$

UTZ013>016-019>022-027-220900-

SOUTHERN UTAH

CITY           SKY/WX    TMP DP  RH WIND       PRES   REMARKS
BRYCE CANYON   CLOUDY     9   7  92 W5        29.96S WCI   1
CEDAR CITY     MOCLDY    16  14  92 E3        30.00S
MILFORD          N/A      6   2  83 S6        30.03F WCI  -4
ST GEORGE        N/A     33  20  58 CALM      30.09S
HANKSVILLE     CLOUDY    25   5  42 CALM      30.04F
KANAB          CLEAR     19  12  73 CALM      30.08
BLANDING         N/A     23  18  83 N3        30.05F

$$

REGIONAL REPORTS     COLORADO/ARIZONA

CITY           SKY/WX    TMP DP  RH WIND       PRES   REMARKS
CRAIG, CO      CLOUDY    14   6  70 E3        30.01F
GRAND JUNCTION LGT SNOW  27  27 100 CALM      30.03F FOG
RIFLE, CO      LGT SNOW  23  21  92 CALM      30.01F FOG
MONTROSE, CO   LGT SNOW  24  23  96 NE3       30.03F FOG
CORTEZ, CO     CLOUDY    26  25  96 E6        29.99F WCI  19
COLORADO CITY    N/A     19  18  93 SE3       30.06S
PAGE, AZ       CLOUDY    35  17  47 NW3       30.01F
GRAND CANYON     N/A     10   7  87 CALM      30.00S
KINGMAN, AZ      N/A     25   8  48 S5        30.07F WCI  19
FLAGSTAFF, AZ    N/A     16   4  59 CALM      29.98F

$$

REGIONAL REPORTS    NEVADA/IDAHO/WYOMING

CITY           SKY/WX    TMP DP  RH WIND       PRES   REMARKS
LAS VEGAS, NV    N/A     40  12  32 S5        30.09S
ELY, NY          N/A     12   7  80 SE9       29.96F WCI   0
ELKO, NV         N/A     12   8  84 CALM      29.98F
POCATELLO, ID    N/A     19   7  59 CALM      30.01F
BURLEY, ID       N/A     19   8  62 S7        29.98F WCI  10
EVANSTON, WY     N/A      2  -4  76 E10       29.94F WCI -14
ROCK SPRINGS,  MOCLDY     4  -3  73 CALM      29.99F

$$




USA.gov is the U.S. government's official web portal to all federal, state and local government web resources and services.